RH
67 67 71 92 100 94 87 66 71 77 74 72 88 100 100 88 95 94 94 89 65 50 34 28 22 19 18 20 27 33 29 29 18 18 36 69 53 62 47 59 48 36 24 23 26
53 59 67 76 78 80 84 83 98 100 99 100 100 99 100 100 100 100 87 81 73 50 40 27 23 20 21 26 23 30 31 39 37 18 24 51 46 50 49 40 58 39 32 22 26
81 77 81 80 75 86 88 94 98 97 100 100 100 100 100 100 92 92 89 77 58 40 33 28 24 21 26 25 29 26 29 46 38 28 16 32 34 40 41 44 62 57 33 30 22
82 87 86 79 82 86 86 85 99 100 100 100 100 100 100 95 100 71 74 56 45 32 26 25 30 29 30 30 30 25 30 32 42 35 21 19 28 26 30 51 62 66 43 35 23
90 94 89 90 92 80 78 83 96 99 100 98 88 92 98 100 100 88 74 69 40 29 25 24 28 27 27 26 23 21 28 28 36 42 30 19 20 24 25 47 57 78 50 39 34
70 78 82 93 92 87 94 97 100 99 96 85 78 96 80 98 85 70 65 43 30 23 22 30 27 20 20 20 16 18 23 24 32 35 39 25 18 18 24 42 52 66 55 41 38
70 74 92 89 79 87 100 100 100 100 99 89 97 99 94 85 63 58 44 35 28 25 28 27 24 14 13 11 12 16 19 21 27 34 41 35 21 13 31 35 44 52 53 43 36
72 71 82 78 86 84 100 100 99 92 99 91 93 88 84 77 64 48 35 31 28 28 30 20 14 9 8 8 12 17 16 19 37 42 46 45 22 19 19 27 40 43 44 45 44
67 68 75 73 76 80 98 92 82 89 93 86 85 80 67 72 66 44 37 40 30 32 21 12 8 8 7 9 15 20 19 20 48 32 32 25 24 29 13 24 37 45 33 46 53
70 66 66 69 74 83 87 84 78 86 80 86 89 73 76 87 44 29 33 36 36 24 13 8 7 8 8 9 13 14 15 18 27 33 38 37 34 44 18 21 28 48 30 42 56
56 58 60 68 80 82 79 86 74 89 82 87 79 88 67 54 40 33 37 35 36 11 9 8 8 7 8 8 9 10 11 13 17 34 41 29 50 44 21 16 29 36 36 30 58
47 44 55 64 74 82 88 74 79 81 81 89 88 62 76 59 51 37 33 37 27 8 7 6 6 6 7 7 8 9 11 16 17 36 40 36 48 32 28 15 21 35 39 31 56
36 33 36 56 69 72 86 76 74 75 73 84 59 43 51 60 47 32 37 34 21 6 5 4 4 5 6 7 8 10 11 13 19 28 34 34 34 34 35 21 17 29 41 40 48
30 30 29 42 64 67 82 72 71 73 83 67 49 51 64 69 45 43 40 30 13 4 3 3 3 3 4 6 7 9 10 11 19 32 42 44 35 36 42 31 18 20 32 38 64
27 28 26 30 48 64 78 65 63 77 79 66 61 38 70 67 48 46 31 20 8 3 3 3 3 3 3 4 5 8 8 10 19 26 37 39 32 33 37 38 29 21 30 39 52
25 26 27 28 45 73 63 61 66 74 72 62 52 71 88 79 55 41 24 12 5 3 4 4 5 4 4 4 4 6 8 9 13 22 23 40 26 39 34 47 48 32 26 50 38
26 27 28 28 51 61 58 62 62 77 82 62 56 94 80 74 74 41 15 8 4 3 5 6 5 5 6 4 3 4 6 8 9 14 17 29 18 46 38 52 52 43 28 40 48
23 25 26 30 55 58 61 59 61 74 62 60 58 100 96 88 68 55 13 7 3 3 5 7 6 5 6 5 3 2 4 7 9 9 12 19 15 37 64 44 49 43 34 29 41
21 25 25 34 49 58 59 59 60 70 64 52 84 100 90 73 60 50 17 7 3 3 5 7 7 6 5 5 5 3 3 6 7 9 9 15 17 23 62 47 60 62 47 32 31
20 23 24 31 49 57 60 58 67 69 70 67 87 100 85 72 57 42 22 7 4 4 5 7 8 7 6 4 5 6 4 3 5 11 9 13 17 18 44 61 45 64 47 39 30
19 21 26 34 52 56 60 60 63 69 71 65 98 100 82 79 50 39 16 6 3 5 5 6 7 8 6 4 5 6 5 2 2 5 7 10 17 28 31 64 46 46 62 42 29
18 22 23 43 57 57 56 60 60 75 71 61 100 100 100 77 64 31 11 6 3 4 6 6 7 7 5 5 5 4 6 3 2 3 6 7 20 24 18 32 40 32 48 58 39
19 21 26 58 56 59 56 57 63 84 70 66 100 100 98 73 51 29 9 6 4 5 6 6 5 5 5 5 5 5 5 3 2 2 4 7 14 16 16 22 34 36 38 51 45
22 26 42 72 63 64 61 56 68 80 67 78 100 100 100 82 51 24 9 6 4 5 6 7 6 5 4 5 5 5 5 3 2 2 3 6 9 9 13 19 25 33 36 49 49
28 50 58 69 64 66 61 59 76 72 78 85 100 100 98 90 67 25 9 6 4 6 6 7 6 5 4 5 5 5 5 3 2 2 3 5 9 9 11 15 19 26 30 40 50
46 51 65 60 70 64 60 63 82 73 77 90 100 100 100 88 71 39 9 5 4 6 6 7 6 5 4 5 6 5 3 3 2 3 3 4 9 10 10 12 16 26 30 34 45
45 64 62 65 67 61 59 74 78 72 82 100 95 100 100 82 58 42 10 6 5 7 6 5 7 6 4 5 6 4 2 3 3 3 3 5 8 11 12 14 15 20 30 27 37
Wind_Speed
24 26 29 32 32 33 33 35 38 39 41 45 48 54 58 62 65 70 69 74 80 83 85 87 84 81 72 67 61 58 62 60 76 92 89 95 89 89 86 79 77 72 67 63 68
22 27 31 33 36 38 40 42 48 49 51 56 55 59 62 64 68 74 77 82 85 90 92 93 96 94 84 72 58 55 61 55 74 89 99 102 96 93 88 85 80 76 72 66 61
32 32 34 38 40 42 45 49 52 53 58 64 65 64 68 71 76 79 85 90 95 98 101 101 101 92 83 73 65 59 49 65 74 85 101 107 102 99 91 87 85 83 77 72 65
35 38 39 41 44 45 50 55 57 63 65 65 67 70 73 78 89 88 90 96 100 104 108 102 99 94 80 73 71 64 56 67 74 85 95 107 111 102 92 88 91 87 82 75 70
39 42 44 46 49 49 54 56 62 63 65 64 71 75 76 82 93 102 101 104 106 110 111 106 98 88 78 69 68 63 61 68 77 86 93 107 111 107 98 95 97 93 87 80 76
43 44 48 50 54 54 57 60 64 65 64 70 72 79 82 90 94 103 109 113 114 113 110 101 96 84 73 67 65 66 66 72 80 86 96 100 110 120 102 99 99 97 92 86 80
45 49 52 55 58 57 61 62 67 68 70 71 76 83 89 97 104 111 115 117 116 116 107 98 91 76 66 63 63 65 67 76 82 86 95 103 113 115 109 106 102 101 97 90 85
47 51 56 57 58 60 61 65 70 72 74 78 84 89 94 101 109 113 115 115 113 112 101 89 78 68 59 60 61 66 69 76 80 89 99 111 104 110 117 114 105 105 103 96 89
49 53 57 60 62 61 65 67 72 75 77 84 92 97 102 106 114 114 118 116 110 101 88 78 66 58 57 57 60 66 68 73 87 90 99 107 98 109 120 122 112 108 107 101 94
51 55 58 62 66 66 68 71 75 76 82 88 95 100 105 116 117 118 120 116 107 94 79 68 59 56 58 59 58 67 71 77 81 92 100 107 101 112 120 127 120 114 112 106 99
53 55 59 63 68 70 71 73 77 79 85 95 98 106 114 122 122 124 123 113 102 84 73 65 58 56 57 59 58 65 70 78 81 90 101 106 110 116 122 131 125 117 112 108 102
54 58 60 64 70 75 77 78 81 86 88 94 103 109 116 124 123 124 121 107 94 79 70 63 57 56 55 58 58 63 69 74 82 92 103 108 113 115 120 123 127 122 118 111 109
57 60 62 65 70 75 79 82 86 90 93 98 106 114 120 127 133 126 119 106 90 76 66 57 53 54 56 58 59 62 69 77 84 96 105 109 112 114 118 121 129 126 119 114 112
58 62 65 67 72 75 79 82 86 90 97 102 109 118 125 134 134 128 114 100 83 72 61 53 50 50 54 59 62 63 69 77 83 95 101 109 107 113 119 119 125 128 123 116 110
62 65 68 71 74 77 81 84 87 95 101 105 113 121 130 136 139 129 110 97 79 68 58 51 47 46 51 55 59 64 69 77 85 95 102 106 107 109 116 120 118 123 121 118 114
65 68 69 74 77 77 81 85 88 96 101 109 119 125 132 141 139 124 107 91 77 64 54 51 45 43 45 50 55 64 68 74 85 95 101 99 102 109 112 112 113 119 125 123 116
69 71 72 75 77 77 82 85 92 97 106 113 121 125 137 143 138 125 108 87 74 61 51 48 46 41 41 44 50 57 64 71 79 95 89 101 104 103 110 113 116 117 126 128 124
68 71 73 76 77 76 82 90 96 100 107 116 121 129 136 135 139 128 110 87 73 59 49 48 48 44 38 41 46 52 60 68 77 82 88 104 99 97 108 114 117 118 121 131 128
66 71 73 77 77 77 85 95 100 103 109 118 121 129 135 143 139 123 110 89 74 61 47 43 49 47 41 38 40 46 53 67 69 76 85 95 89 95 106 109 112 114 118 125 129
65 70 74 77 76 80 88 96 101 107 114 120 126 133 144 141 135 121 110 89 74 62 49 41 44 45 44 38 32 39 51 62 68 79 79 85 86 89 103 108 111 117 121 123 130
64 68 74 77 78 82 88 97 103 109 116 120 128 137 145 152 135 123 103 88 71 60 53 43 39 42 43 37 32 35 49 52 62 72 74 79 78 89 100 111 118 121 121 125 130
63 68 73 75 79 83 90 97 102 112 116 121 130 137 146 150 137 126 101 88 72 59 52 45 40 38 41 33 35 34 41 51 52 65 74 75 73 95 101 112 115 118 123 123 126
67 69 72 76 79 85 92 99 105 112 115 120 130 136 145 150 133 126 100 89 75 61 52 46 40 36 38 33 33 34 37 46 51 56 69 70 80 95 98 107 112 115 118 123 123
70 72 73 77 81 87 94 101 107 111 115 122 130 136 143 144 131 125 101 89 75 64 52 46 45 38 38 31 31 32 35 38 45 50 57 63 81 92 98 105 108 113 115 119 122
72 73 76 80 84 89 95 102 108 112 118 124 131 138 143 141 131 124 103 90 75 66 54 45 45 40 36 29 29 27 30 31 39 44 45 63 80 92 94 100 104 107 111 114 117
72 75 76 81 86 91 98 104 110 115 121 125 131 139 148 143 131 122 103 89 74 65 54 41 43 39 35 26 26 27 26 29 36 42 54 69 82 84 88 94 99 100 105 110 112
74 76 78 83 88 92 100 105 109 114 121 128 133 140 143 146 130 123 104 90 74 65 58 44 40 40 33 26 26 26 21 29 39 45 53 65 78 81 85 89 91 93 99 106 109
Wind_Direction
325 324 325 326 329 322 315 313 316 318 320 319 325 322 317 313 313 310 310 310 307 305 305 304 304 301 298 296 285 270 254 250 238 232 230 233 230 228 227 224 228 226 227 225 225
318 321 325 325 324 319 314 317 321 321 321 327 324 322 318 317 313 310 312 309 308 305 305 304 302 303 301 295 277 266 249 244 239 232 227 231 229 228 225 226 224 227 226 226 221
317 317 315 318 320 319 321 320 324 323 322 325 325 325 321 317 316 314 315 310 306 303 303 303 303 301 297 288 281 259 249 241 237 233 228 228 229 228 223 224 227 225 225 224 222
312 313 319 317 318 320 319 320 322 322 325 323 325 319 316 314 314 315 314 310 309 308 308 307 303 298 291 285 274 265 252 240 234 233 228 228 228 227 225 223 224 226 224 223 226
320 319 319 317 316 315 316 319 321 322 321 319 321 322 317 316 315 315 314 311 310 310 308 304 304 297 290 279 270 263 252 234 230 231 229 227 228 226 223 220 222 223 224 222 223
318 316 316 315 315 317 317 319 321 320 320 320 322 320 322 317 314 314 314 314 312 311 310 306 302 296 287 275 262 251 239 229 226 226 229 226 225 226 221 221 220 221 222 221 219
316 315 315 312 316 322 321 321 321 320 320 321 319 321 323 320 319 320 317 313 312 311 310 305 301 293 282 270 254 244 236 227 222 222 224 225 223 224 222 221 219 220 221 220 220
314 315 314 317 318 321 322 322 321 322 319 322 320 319 323 323 324 320 318 316 314 311 308 302 297 289 279 267 251 241 232 223 223 220 221 224 221 221 219 220 217 219 220 219 219
313 314 316 317 318 322 322 320 321 323 321 323 324 323 324 324 323 323 321 320 314 311 307 300 294 285 276 264 247 238 228 221 224 220 220 226 218 221 219 220 217 218 217 217 216
314 314 315 318 319 321 319 320 323 323 324 324 325 325 324 326 325 323 324 321 319 313 307 299 291 280 271 264 248 235 227 224 221 220 218 222 216 218 219 218 216 216 216 215 214
316 314 315 318 319 320 321 319 322 321 325 323 327 327 331 330 327 325 326 322 322 315 307 298 287 277 267 260 249 238 232 227 221 219 218 219 214 217 218 216 216 215 217 214 213
312 314 316 318 319 321 321 321 321 323 326 326 326 328 332 332 329 327 326 324 322 316 307 296 286 275 265 257 249 241 234 228 221 218 218 216 216 217 219 219 216 215 215 213 213
309 313 317 316 317 320 322 321 323 325 326 326 327 327 331 332 332 330 330 327 324 318 309 297 285 272 262 253 246 237 230 227 217 218 218 216 215 215 218 218 217 214 214 214 213
308 311 316 316 316 319 320 322 324 325 327 327 329 331 336 333 334 333 331 328 327 321 311 298 286 273 263 253 244 236 229 226 216 219 218 219 214 214 216 217 217 215 215 213 212
307 310 314 317 318 320 321 324 324 325 327 329 331 333 336 336 333 334 333 332 330 322 313 300 288 275 263 256 248 238 231 224 219 218 219 221 215 216 216 216 216 216 215 215 211
304 308 312 316 318 321 322 324 324 327 331 333 335 338 336 338 337 337 336 334 332 325 315 301 290 281 269 257 250 241 233 226 222 221 221 221 219 216 216 216 215 215 214 215 213
304 307 312 315 317 321 324 324 325 329 332 334 337 337 337 339 339 340 337 336 333 326 316 304 295 285 273 264 250 244 237 231 225 225 220 220 222 212 217 215 215 214 213 213 213
304 307 312 315 316 322 323 325 328 331 333 335 339 335 340 339 338 340 339 337 334 327 318 306 296 288 278 265 254 243 235 232 228 226 220 221 219 208 216 215 216 215 214 213 214
302 306 312 312 315 317 318 324 328 330 333 335 339 339 340 339 339 341 341 337 334 329 322 309 297 294 285 270 261 252 237 231 229 227 223 224 217 212 214 217 216 217 214 214 213
302 306 310 309 313 316 320 325 329 331 334 338 338 340 342 342 342 342 343 338 334 330 324 313 300 294 285 275 262 250 243 232 224 225 223 221 216 214 214 216 216 217 215 213 211
302 307 308 311 315 318 322 326 329 332 335 338 339 341 343 342 343 342 341 339 335 331 324 316 303 293 283 277 265 242 243 237 227 221 220 216 210 212 213 215 215 215 216 215 214
303 306 309 313 317 321 324 326 329 333 336 339 340 342 343 343 343 343 342 340 336 333 324 318 309 295 282 274 261 250 238 237 226 223 219 214 205 211 214 214 218 217 215 216 214
305 309 311 315 317 321 325 327 330 333 336 339 340 342 344 342 343 344 341 341 336 333 326 319 308 298 286 278 260 254 242 233 228 220 218 212 205 212 211 216 216 218 217 216 214
308 310 314 316 319 322 325 328 330 332 336 340 341 342 345 345 344 344 342 341 336 333 328 321 314 306 294 287 268 254 245 235 229 223 215 210 209 212 210 213 213 218 218 216 215
309 312 315 318 322 324 326 328 330 333 336 340 342 342 344 347 344 344 342 340 336 332 328 321 315 308 300 294 271 257 247 232 223 221 207 201 209 214 211 210 215 213 218 218 216
309 312 316 321 324 326 327 328 331 335 337 341 342 342 344 345 343 344 342 339 335 331 327 323 315 309 302 296 276 256 241 225 216 211 205 200 207 210 210 211 213 213 214 217 217
308 313 320 321 324 326 328 329 332 335 338 340 342 342 344 343 343 342 341 339 335 331 328 326 318 311 306 293 270 253 235 220 211 206 203 198 204 207 210 210 212 212 213 215 215